Volver al catálogo

CRRES DEB

CANISTER

ActivoHEO
NORAD 29532·DEBRIS·🇺🇸 United States

Lanzado Jul 25, 1990 desde Cape Canaveral Space Force Station

Loading…

Próximos Pases (próximas 24 horas)

TLE

ActualizadoSource: Space-Track

Época: Sep 9, 2026, 20:26 UTC

1 29532U 90065Z   26252.85159550  .00000980  00000-0  56868-3 0  9999
2 29532  17.7507  85.8813 6966696 328.1548   4.2014  2.65324584134932

Sigue CRRES DEB en tiempo real con AllMySat

Download on the App Store